This is the latest recevied weather packets stored in our database for station/object KD8BMB. If no packets are shown the sender has not sent any weather packets the latest 10 day(s).
| Time | Temp. | Humidity | Pressure | Rain* | Wind** | Luminosity | Snow |
|---|---|---|---|---|---|---|---|
| 1777946581 | 19.44° C | 64% | 997.5 hPa | 0 mm | - | 0 W/m² | - |
| 1777946278 | 20° C | 64% | 997.5 hPa | 0 mm | - | 0 W/m² | - |
| 1777945975 | 20° C | 64% | 997.5 hPa | 0 mm | - | 0 W/m² | - |
| 1777945673 | 20° C | 63% | 997.3 hPa | 0 mm | - | 0 W/m² | - |
| 1777945370 | 20° C | 63% | 997.3 hPa | 0 mm | - | 0 W/m² | - |
| 1777945066 | 20° C | 61% | 997.5 hPa | 0 mm | - | 0 W/m² | - |
| 1777944763 | 19.44° C | 60% | 997.3 hPa | 0 mm | - | 0 W/m² | - |
| 1777944461 | 18.89° C | 56% | 997.3 hPa | 0 mm | - | 0 W/m² | - |
| 1777944158 | 18.89° C | 55% | 997.1 hPa | 0 mm | - | 0 W/m² | - |
| 1777943854 | 18.33° C | 55% | 997.2 hPa | 0 mm | - | 0 W/m² | - |
| 1777943552 | 18.89° C | 54% | 996.9 hPa | 0 mm | - | 0 W/m² | - |
| 1777943247 | 18.89° C | 54% | 996.8 hPa | 0 mm | - | 0 W/m² | - |
| 1777942943 | 19.44° C | 51% | 996.9 hPa | 0 mm | - | 0 W/m² | - |
| 1777942640 | 20° C | 51% | 997 hPa | 0 mm | - | 0 W/m² | - |
| 1777942337 | 20° C | 50% | 996.8 hPa | 0 mm | - | 0 W/m² | - |
| 1777942034 | 20° C | 49% | 997 hPa | 0 mm | - | 0 W/m² | - |
| 1777941731 | 20.56° C | 48% | 997 hPa | 0 mm | - | 0 W/m² | - |
| 1777941428 | 21.11° C | 47% | 996.8 hPa | 0 mm | - | 2 W/m² | - |
| 1777941126 | 21.67° C | 44% | 997.1 hPa | 0 mm | - | 4 W/m² | - |
| 1777940822 | 21.67° C | 44% | 997 hPa | 0 mm | - | 7 W/m² | - |
| 1777940519 | 22.22° C | 44% | 997.1 hPa | 0 mm | - | 10 W/m² | - |
| 1777940216 | 22.22° C | 43% | 996.9 hPa | 0 mm | - | 13 W/m² | - |
| 1777939914 | 22.78° C | 42% | 997 hPa | 0 mm | - | 17 W/m² | - |
| 1777939611 | 22.78° C | 42% | 997.1 hPa | 0 mm | - | 23 W/m² | - |
| 1777939309 | 22.78° C | 42% | 997.1 hPa | 0 mm | - | 32 W/m² | - |
* Rain latest hour (hover to see other rain measurements)
** Current wind speed in m/s (hover to see current wind gust speed)